Damascus, Syria

5:11 PM EEST on September 19, 2017 (GMT +0300)
Damascus International

Weather History for OSDI - January, 2013

Change the Weather History Date:

Monday, January 7, 2013

  Actual Average Record
Temperature  
Mean Temperature 46 °F -  
Max Temperature 51 °F 55 °F 62 °F (2003)
Min Temperature 42 °F 33 °F 19 °F (2008)
Degree Days  
Heating Degree Days 18    
Moisture  
Dew Point 40 °F    
Average Humidity 80    
Maximum Humidity 100    
Minimum Humidity 62    
Precipitation  
Precipitation 0.35 in 0.04 in - ()
Sea Level Pressure  
Sea Level Pressure 29.62 in    
Wind  
Wind Speed 19 mph ()    
Max Wind Speed 44 mph    
Max Gust Speed 48 mph    
Visibility 5.5 miles    
Events Rain    
Averages and records for this station are not official NWS values.
T = Trace of Precipitation, MM = Missing Value Source: Averaged Metar Reports

Daily Weather History Graph

Daily Weather History Graph

Search for Another Location

Airport or City:

Trip Planner

Search our weather history database for the weather conditions in past years. The results will help you decide how hot, cold, wet, or windy it might be!

Date:

Astronomy

Jan. 07, 2013 Rise Set
Actual Time 6:38 AM EET 4:42 PM EET
Civil Twilight 6:11 AM EET 5:09 PM EET
Nautical Twilight 5:40 AM EET 5:40 PM EET
Astronomical Twilight 5:10 AM EET 6:10 PM EET
Moon 1:42 AM EET (1/7) 12:33 PM EET (1/7)
Length of Visible Light 10h 57m
Length of Day
10h 03m
Waning Crescent, 26% of the Moon is Illuminated
Jan 7
Waning Crescent
Jan 11
New
Jan 19
First Quarter
Jan 27
Full
Feb 3
Last Quarter

Hourly Weather History & Observations

Time (EET) Temp. Windchill Dew Point Humidity Pressure Visibility Wind Dir Wind Speed Gust Speed Precip Events Conditions
12:00 AM 48.2 °F - 41.0 °F 76% 29.62 in 6.2 mi WSW 13.8 mph - N/A   Mostly Cloudy
1:00 AM 48.2 °F - 41.0 °F 76% 29.62 in 6.2 mi WSW 16.1 mph - N/A   Mostly Cloudy
2:00 AM 44.6 °F 36.9 °F 41.0 °F 87% 29.62 in - WNW 18.4 mph - N/A Rain Rain
3:00 AM 44.6 °F 34.4 °F 41.0 °F 87% 29.59 in 3.1 mi West 32.2 mph - N/A Rain Rain
4:00 AM 42.8 °F 36.6 °F 41.0 °F 93% 29.56 in 6.2 mi WSW 11.5 mph - N/A   Scattered Clouds
5:00 AM 44.6 °F 40.7 °F 42.8 °F 93% 29.56 in 6.2 mi WSW 6.9 mph - N/A Rain Light Rain
6:00 AM 44.6 °F 36.4 °F 42.8 °F 93% 29.56 in 6.2 mi WSW 20.7 mph - N/A Rain Light Rain
7:00 AM 44.6 °F 36.9 °F 41.0 °F 87% 29.53 in 2.5 mi WSW 18.4 mph - N/A   Scattered Clouds
8:00 AM 44.6 °F 35.9 °F 41.0 °F 87% 29.53 in 2.5 mi WSW 23.0 mph - N/A Rain Rain
9:00 AM 42.8 °F 31.9 °F 41.0 °F 93% 29.56 in 2.5 mi West 32.2 mph - N/A Rain Rain
10:00 AM 42.8 °F 34.0 °F 42.8 °F 100% 29.56 in 3.1 mi West 20.7 mph 36.8 mph N/A Rain Rain
11:00 AM 46.4 °F 39.8 °F 42.8 °F 87% 29.56 in 6.2 mi West 16.1 mph 34.5 mph N/A   Mostly Cloudy
11:04 AM - - - N/A% 29.56 in 3.7 mi West 16.1 mph 32.2 mph N/A Rain Rain
12:00 PM 48.2 °F - 44.6 °F 87% 29.59 in 3.7 mi WNW 23.0 mph 39.1 mph N/A Rain Rain
12:30 PM - - - N/A% 29.59 in 6.2 mi WNW 23.0 mph - N/A   Mostly Cloudy
1:00 PM 48.2 °F - 42.8 °F 82% 29.59 in 6.2 mi West 20.7 mph - N/A   Scattered Clouds
1:30 PM - - - N/A% 29.59 in 6.2 mi WNW 36.8 mph - N/A   Scattered Clouds
2:00 PM 50 °F - 42 °F 65% 29.57 in 7 mi WNW 40.3 mph - -   Partly Cloudy
2:00 PM 50.0 °F - 41.0 °F 71% 29.59 in 6.2 mi WNW 41.4 mph - N/A   Scattered Clouds
3:00 PM 50.0 °F - 37.4 °F 62% 29.62 in 6.2 mi WNW 32.2 mph 48.3 mph N/A   Scattered Clouds
4:00 PM 48.2 °F - 39.2 °F 71% 29.62 in 6.2 mi WNW 32.2 mph 43.7 mph N/A   Partly Cloudy
5:00 PM 46.4 °F 35.5 °F 39.2 °F 76% 29.65 in 6.2 mi WNW 43.7 mph - N/A   Scattered Clouds
6:00 PM 44.6 °F 34.7 °F 35.6 °F 71% 29.71 in 6.2 mi WNW 29.9 mph - N/A   Scattered Clouds
7:00 PM 44.6 °F 35.5 °F 35.6 °F 71% 29.74 in 6.2 mi WNW 25.3 mph 39.1 mph N/A   Scattered Clouds
8:00 PM 44 °F - 36 °F 64% 29.75 in 9 mi West 22.4 mph - -   Partly Cloudy
8:00 PM 42.8 °F 35.8 °F 35.6 °F 76% 29.74 in 6.2 mi West 13.8 mph 27.6 mph N/A   Scattered Clouds
9:00 PM 44.6 °F 36.9 °F 37.4 °F 76% 29.74 in 6.2 mi West 18.4 mph 32.2 mph N/A   Scattered Clouds
10:00 PM 44.6 °F 36.9 °F 37.4 °F 76% 29.77 in 6.2 mi West 18.4 mph 32.2 mph N/A   Scattered Clouds
11:00 PM 44.6 °F 38.1 °F 39.2 °F 81% 29.80 in 6.2 mi WNW 13.8 mph - N/A   Scattered Clouds